COSMOS 444

Satellite information

Favourite Embed

Satellite Type and Status

PAYLOADIN ORBIT

Key statistics

Satellite COSMOS 444 at a glance.

Uptime

19626

Days in orbit

Revolutions

≈ 12.6

Per day

Orbit

LEO

Low Earth Orbit

Inclination

74.0

Latest

Satellite identification and parameters

Extended collection of information and parameters for COSMOS 444.

Object identification

Identified? True

Debris? False

Object name: COSMOS 444

International designator: 1971-086A

Object number (NORAD): 5547

Object ID (CCSDS): 5547

Country: COMMONWEALTH OF INDEPENDENT STATES (CIS)

Current information (Y/N): Y

RCS size: MEDIUM

Orbital parameters

Period: 114.093 minutes

Inclination: 74.0255 deg

SMA: 7792.301 km

Apoapsis: 1507.622 km

Periapsis: 1320.71 km

RAAN: 201.1008 deg

Eccentricy: 0.0119934

Argument of periapsis: 181.7984 deg

Mean anomaly: 178.2659 deg

Mean motion: 12.62130313 rev/day

Mean motion (dot): 0.00000014 rev/day2

B* drag term: 0.00016366 1/REarth

Two-line elements (TLE)

Creation date: July 6, 2025, 6:05 p.m.

Reference frame: TEME

Reference center: EARTH

Epoch: July 6, 2025, 11:20 a.m. UTC

TLE line 0: 0 COSMOS 444

TLE line 1: 1 05547U 71086A 25187.47228983 .00000014 00000-0 16366-3 0 9999

TLE line 2: 2 05547 74.0255 201.1008 0119934 181.7984 178.2659 12.62130313475403

Live tracking on map

Real-time ground track for satellite COSMOS 444.

In-orbit conjunctions

There are no conjunctions computed for COSMOS 444, at the moment. Check back to stay up to date, as we update our databases every day.

Go to all conjunctions

Associated space launch

Military communications satellites

COSMOS 444 was lifted into orbit during the mission ‘Kosmos-3M | Strela-1M 17-24’, on board a Kosmos-3M space rocket.

The launch took place on Oct. 13, 1971, 1:41 p.m. from 132/2.

For more information about the launch, click the button.

Launch to space Kosmos-3M | Strela-1M 17-24
Kosmos-3M | Strela-1M 17-24

Agency: N/A

Status: Launch Successful

Launch date: Oct. 13, 1971, 1:41 p.m. UTC

Rocket: Kosmos-3M

Launch pad: 132/2

Location: Plesetsk Cosmodrome, Russian Federation

...

Latest news about this satellite

There are no fresh news available about this satellite. Check back as we update our databases every day.


Newsletter sign-up

Weekly statistics, charts and insights to help you stay on top of the space industry.